RS-40
1 38735U 12041C 19353.12600790 .00000001 00000-0 -65421-4 0 9994
2 38735 82.4752 113.7310 0016958 193.8791 166.1829 12.42579946335338
BEESAT-3
1 39135U 13015F 19352.93792328 .00000816 00000-0 49344-4 0 9997
2 39135 64.8647 167.4834 0042998 276.0544 83.5684 15.17795151368059
BEESAT-2
1 39136U 13015G 19352.78133358 .00000855 00000-0 52378-4 0 9997
2 39136 64.8688 172.3590 0030748 282.3754 77.3931 15.17217929367947
ZACUBE-1
1 39417U 13066B 19353.45902685 .00000184 00000-0 29374-4 0 9992
2 39417 97.5611 356.6201 0059633 150.2114 210.2516 14.81193988328246
TRITON-1
1 39427U 13066M 19353.16470725 .00000153 00000-0 32743-4 0 9996
2 39427 97.7009 319.4481 0112529 298.5304 60.4610 14.67920721325253
GOMX-1
1 39430U 13066Q 19353.79612950 .00000221 00000-0 48718-4 0 9992
2 39430 97.7713 298.4475 0151967 34.2114 326.8775 14.59325940323455
LO-74
1 39440U 13066AA 19353.48145164 .00000150 00000-0 27895-4 0 9991
2 39440 97.6145 341.1865 0079472 207.0561 152.6497 14.75932009327086
AO-73
1 39444U 13066AE 19353.01968047 .00000244 00000-0 36107-4 0 9997
2 39444 97.5574 358.3155 0058881 144.7814 215.7313 14.82029121327084
SPROUT
1 39770U 14029E 19353.75297545 .00000683 00000-0 81291-4 0 9999
2 39770 97.8906 95.9507 0008618 194.5343 165.5624 14.87545875302192
DUCHIFAT-1
1 40021U 14033M 19353.06209729 .00000351 00000-0 41552-4 0 9994
2 40021 97.9327 278.3181 0013156 159.5848 200.5898 14.90765236298860
NANOSATCBR1
1 40024U 14033Q 19353.79103191 .00000325 00000-0 39598-4 0 9991
2 40024 97.9202 275.9800 0012459 160.8903 199.2784 14.89958192298858
EO-79
1 40025U 14033R 19353.02471088 .00000189 00000-0 26088-4 0 9999
2 40025 97.9102 272.4204 0012514 169.9789 190.1680 14.89039414298607
DTUSAT-2
1 40030U 14033W 19353.34026654 .00000217 00000-0 29331-4 0 9991
2 40030 97.9002 270.5707 0012092 164.6506 195.5079 14.88624485298573
EO-80
1 40032U 14033Y 19353.01662200 .00000204 00000-0 27955-4 0 9996
2 40032 97.9009 270.2492 0012011 166.3022 193.8523 14.88569975298514
ANTELSAT
1 40034U 14033AA 19353.11065495 .00000158 00000-0 30831-4 0 9997
2 40034 97.7342 212.2386 0057647 223.6211 136.0434 14.74179159295695
VELOX-1
1 40057U 14034E 19353.78840969 .00000221 00000-0 38508-4 0 9993
2 40057 98.2572 121.1073 0010967 10.6345 349.5097 14.77767741294955
DAURIA DX 1
1 40071U 14037C 19353.69388502 .00000071 00000-0 16606-4 0 9990
2 40071 98.4445 157.2308 0008590 4.2081 355.9203 14.81317904294494
UKUBE-1
1 40074U 14037F 19353.75831691 .00000327 00000-0 46380-4 0 9998
2 40074 98.4494 166.3799 0004645 358.8041 1.3124 14.84158373294958
HODOYOSHI-1
1 40299U 14070B 19353.75960814 .00008044 00000-0 33755-3 0 9999
2 40299 97.3365 69.5733 0015051 113.7845 1.0733 15.23633668284295
CHUBUSAT-1
1 40300U 14070C 19353.80014273 .00000587 00000-0 28320-4 0 9994
2 40300 97.3106 63.1651 0021095 126.1550 12.3467 15.22293108284026
QSAT-EOS
1 40301U 14070D 19353.76283800 .00001330 00000-0 53342-4 0 9993
2 40301 97.3128 67.2157 0027182 107.1856 45.6364 15.26417430284360
FIREBIRD FU3
1 40377U 15003B 19353.33158567 .00001463 00000-0 60653-4 0 9997
2 40377 99.1166 11.3390 0125221 198.0781 161.5977 15.19413188269801
FIREBIRD FU4
1 40378U 15003C 19353.64686897 .00001578 00000-0 64960-4 0 9996
2 40378 99.1168 11.8065 0125428 196.9009 162.8025 15.19427680269852
GRIFEX
1 40379U 15003D 19353.78466446 .00001125 00000-0 51670-4 0 9990
2 40379 99.1210 4.9202 0133477 218.1514 141.0209 15.15942865269472
NO-84
1 40654U 15025D 19353.35549306 .00005537 00000 0 74639-4 0 8045
2 40654 54.9873 53.1453 0131058 79.4650 282.1157 15.50274926140908
DEORBITSAIL
1 40719U 15032E 19352.93431644 .00000347 00000-0 56486-4 0 9993
2 40719 97.8888 240.8228 0017685 74.9930 285.3236 14.76868554239306
NUDT-PHONESAT
1 40900U 15049B 19353.86291381 .00001695 00000-0 74148-4 0 9990
2 40900 97.4353 1.4372 0011012 258.1105 185.6276 15.23407307235692
XW-2A
1 40903U 15049E 19353.74604567 .00001518 00000-0 37015-4 0 9990
2 40903 97.3148 37.3603 0012886 191.5690 307.0513 15.42434041238615
XW-2C
1 40906U 15049H 19353.76741898 .00000522 00000-0 30711-4 0 9994
2 40906 97.4723 352.8651 0013233 283.2862 69.1247 15.15864472234872
XW-2D
1 40907U 15049J 19353.73872228 .00000655 00000-0 37441-4 0 9998
2 40907 97.4703 352.5224 0012539 280.1620 166.9458 15.16071153234899
LILACSAT-2
1 40908U 15049K 19353.74363971 .00000309 00000-0 20646-4 0 9995
2 40908 97.4847 351.1306 0014447 290.0803 156.3537 15.13915901234658
XW-2E
1 40909U 15049L 19353.76134398 .00000684 00000-0 36839-4 0 9994
2 40909 97.4620 355.7044 0011918 272.4082 173.7046 15.18087661235118
XW-2F
1 40910U 15049M 19353.78567888 .00000850 00000-0 45605-4 0 9998
2 40910 97.4652 354.8599 0013109 270.8111 175.9886 15.17600937234930
XW-2B
1 40911U 15049N 19353.71401771 .00000485 00000-0 28693-4 0 9992
2 40911 97.4721 353.1786 0012555 281.4614 165.9014 15.15998717234787
DCBB
1 40912U 15049P 19353.73253569 .00000967 00000-0 48111-4 0 9997
2 40912 97.4489 358.7348 0013258 248.4963 198.6544 15.19951034235265
TW-1C
1 40926U 15051B 19353.84962159 .00011687 00000-0 14703-3 0 9999
2 40926 97.1123 39.9923 0008523 54.5381 32.3367 15.59770237238828
TW-1A
1 40928U 15051D 19353.89134552 .00002203 00000-0 54057-4 0 9995
2 40928 97.1279 21.0338 0012372 118.8380 4.6184 15.41683290237544
IO-86
1 40931U 15052B 19352.99822069 .00000535 00000-0 -14603-4 0 9997
2 40931 5.9937 189.3915 0013188 231.8732 128.1161 14.76621044228394
LQSat
1 40958U 15057A 19353.16686223 .00000006 00000-0 85464-5 0 9997
2 40958 97.8787 57.2010 0018446 16.8560 343.3257 14.73100681225814
AO-85
1 40967U 15058D 19353.34393203 -.00000039 00000 0 14838-4 0 9049
2 40967 64.7766 320.7066 0178055 141.2901 220.1133 14.76042939134849
ATHENOXAT-1
1 41168U 15077C 19353.54395164 .00001731 00000-0 55601-4 0 9991
2 41168 14.9889 308.3769 0011536 130.7666 229.3657 15.13988118221882
ChubuSat-2
1 41338U 16012B 19353.46546460 .00000283 00000-0 15236-4 0 9999
2 41338 31.0042 56.8083 0013689 123.4831 236.7114 15.00221287210533
ChubuSat-3
1 41339U 16012C 19353.87943862 .00000256 00000-0 13110-4 0 9991
2 41339 31.0122 52.0348 0013376 134.3974 225.7760 15.00391529210595
Horyu-4
1 41340U 16012D 19353.53894385 .00000435 00000-0 26202-4 0 9996
2 41340 31.0061 43.8061 0013853 153.0586 207.0771 15.01379167210664
OUFTI-1
1 41458U 16025C 19353.23273424 .00001616 00000-0 84469-4 0 9993
2 41458 98.0998 89.4320 0166379 99.7731 262.2328 15.06319209200194
e-st@r-II
1 41459U 16025D 19353.82624116 .00001432 00000-0 75878-4 0 9997
2 41459 98.0992 89.6040 0167621 99.5118 262.5124 15.05922418200253
AAUSAT4
1 41460U 16025E 19353.76142477 .00001681 00000-0 86237-4 0 9994
2 41460 98.0964 91.2758 0157165 90.4058 271.5188 15.08006525200406
LO-87
1 41557U 16033B 19353.80908042 .00001038 00000-0 41118-4 0 9998
2 41557 97.4123 80.2193 0013929 14.1439 346.0188 15.27607531198194
NuSat2
1 41558U 16033C 19353.80951573 .00001213 00000-0 44956-4 0 9994
2 41558 97.4160 81.8764 0012944 13.6566 346.5022 15.29541606198271
Lapan A3
1 41603U 16040E 19353.75077920 .00000195 00000-0 12220-4 0 9999
2 41603 97.3367 47.6661 0014984 111.9301 29.0711 15.19778009193698
Swayam
1 41607U 16040J 19353.70300010 .00001367 00000-0 59616-4 0 9999
2 41607 97.3438 52.1290 0014940 103.0028 257.2879 15.23747317193895
Pratham
1 41783U 16059A 19353.44000922 .00000046 00000-0 18041-4 0 9994
2 41783 98.0445 48.7291 0033994 164.0450 196.1831 14.63027192172413
